| time (UTC) | temp F | wind direction | speed MPH | gust MPH | rain 1hr in | rain 24hr in | rain mn in | humidity % | barometer mb |
| 20260509181640 | 86 | 154 | 3.0 | 8.0 | 0.00 | 0.00 | 0.00 | 77 | 1009.0 |
| 20260509181345 | 86 | 171 | 3.0 | 9.0 | 0.00 | 0.00 | 0.00 | 77 | 1009.1 |
| 20260509180549 | 85 | 168 | 4.0 | 9.0 | 0.00 | 0.00 | 0.00 | 77 | 1009.3 |
| 20260509180034 | 85 | 212 | 4.0 | 9.0 | 0.00 | 0.00 | 0.00 | 78 | 1009.5 |
| 20260509175806 | 85 | 242 | 4.0 | 8.0 | 0.00 | 0.00 | 0.00 | 80 | 1009.5 |
| 20260509175009 | 85 | 249 | 4.0 | 10.0 | 0.00 | 0.00 | 0.00 | 80 | 1009.5 |
| 20260509174505 | 85 | 270 | 4.0 | 10.0 | 0.00 | 0.01 | 0.00 | 80 | 1009.5 |
| 20260509174211 | 84 | 97 | 5.0 | 10.0 | 0.00 | 0.01 | 0.00 | 81 | 1009.5 |
| 20260509173646 | 84 | 206 | 5.0 | 12.0 | 0.00 | 0.01 | 0.00 | 82 | 1009.5 |
| 20260509172857 | 83 | 193 | 4.0 | 12.0 | 0.00 | 0.01 | 0.00 | 83 | 1009.6 |
| 20260509172617 | 83 | 248 | 3.0 | 10.0 | 0.00 | 0.01 | 0.00 | 84 | 1009.7 |
| 20260509171843 | 83 | 222 | 3.0 | 7.0 | 0.00 | 0.01 | 0.00 | 85 | 1009.8 |
| 20260509171317 | 83 | 199 | 3.0 | 7.0 | 0.00 | 0.01 | 0.00 | 86 | 1010.0 |
| 20260509170749 | 82 | 195 | 2.0 | 6.0 | 0.00 | 0.02 | 0.00 | 86 | 1010.0 |
| 20260509170247 | 82 | 197 | 2.0 | 6.0 | 0.00 | 0.02 | 0.00 | 87 | 1010.0 |
| 20260509170221 | 82 | 193 | 3.0 | 7.0 | 0.00 | 0.02 | 0.00 | 87 | 1010.1 |
| 20260509165216 | 82 | 197 | 3.0 | 7.0 | 0.00 | 0.02 | 0.00 | 86 | 1010.1 |
| 20260509164648 | 82 | 187 | 2.0 | 5.0 | 0.00 | 0.02 | 0.00 | 86 | 1010.0 |
| 20260509164145 | 82 | 196 | 2.0 | 5.0 | 0.00 | 0.02 | 0.00 | 86 | 1010.0 |
| 20260509163643 | 82 | 195 | 1.0 | 7.0 | 0.00 | 0.03 | 0.00 | 86 | 1010.0 |
| 20260509163413 | 82 | 270 | 0.0 | 3.0 | 0.00 | 0.03 | 0.00 | 87 | 1010.0 |
| 20260509162617 | 82 | 297 | 1.0 | 3.0 | 0.00 | 0.03 | 0.00 | 86 | 1010.0 |
| 20260509162611 | 82 | 297 | 1.0 | 4.0 | 0.00 | 0.03 | 0.00 | 86 | 1009.9 |
| 20260509161606 | 82 | 260 | 1.0 | 4.0 | 0.00 | 0.03 | 0.00 | 86 | 1010.1 |
| 20260509161107 | 82 | 310 | 1.0 | 4.0 | 0.00 | 0.03 | 0.00 | 86 | 1010.1 |
| 20260509160600 | 82 | 317 | 2.0 | 5.0 | 0.00 | 0.03 | 0.00 | 86 | 1010.0 |
| 20260509160034 | 82 | 316 | 1.0 | 5.0 | 0.00 | 0.03 | 0.00 | 87 | 1010.0 |
| 20260509155531 | 82 | 259 | 1.0 | 4.0 | 0.00 | 0.03 | 0.00 | 87 | 1009.9 |
| 20260509155003 | 82 | 239 | 0.0 | 4.0 | 0.00 | 0.03 | 0.00 | 87 | 1009.9 |
| 20260509154500 | 81 | 138 | 0.0 | 0.0 | 0.00 | 0.03 | 0.00 | 88 | 1009.9 |
| 20260509153936 | 81 | 137 | 0.0 | 0.0 | 0.00 | 0.03 | 0.00 | 89 | 1009.9 |
| 20260509153431 | 81 | 137 | 0.0 | 0.0 | 0.00 | 0.03 | 0.00 | 91 | 1009.8 |
| 20260509152903 | 80 | 137 | 0.0 | 0.0 | 0.00 | 0.03 | 0.00 | 92 | 1009.8 |
| 20260509152401 | 80 | 137 | 0.0 | 0.0 | 0.00 | 0.03 | 0.00 | 93 | 1010.0 |
| 20260509151833 | 79 | 137 | 0.0 | 0.0 | 0.00 | 0.03 | 0.00 | 93 | 1010.0 |
| 20260509151602 | 79 | 137 | 0.0 | 0.0 | 0.00 | 0.04 | 0.00 | 94 | 1010.0 |
| 20260509150806 | 79 | 137 | 0.0 | 0.0 | 0.00 | 0.04 | 0.00 | 94 | 1010.0 |
| 20260509150304 | 78 | 137 | 0.0 | 0.0 | 0.00 | 0.04 | 0.00 | 95 | 1009.9 |
| 20260509145735 | 78 | 137 | 0.0 | 0.0 | 0.00 | 0.04 | 0.00 | 96 | 1009.7 |
| 20260509145205 | 78 | 137 | 0.0 | 0.0 | 0.00 | 0.04 | 0.00 | 97 | 1009.7 |
| 20260509144703 | 78 | 138 | 0.0 | 0.0 | 0.00 | 0.04 | 0.00 | 97 | 1009.8 |
| 20260509144208 | 77 | 138 | 0.0 | 0.0 | 0.00 | 0.04 | 0.00 | 97 | 1009.7 |
| 20260509143646 | 77 | 137 | 0.0 | 2.0 | 0.00 | 0.04 | 0.00 | 97 | 1009.6 |
| 20260509143145 | 77 | 137 | 0.0 | 2.0 | 0.00 | 0.04 | 0.00 | 98 | 1009.5 |
| 20260509142617 | 77 | 137 | 0.0 | 2.0 | 0.00 | 0.04 | 0.00 | 98 | 1009.6 |
| 20260509142114 | 77 | 138 | 1.0 | 4.0 | 0.00 | 0.04 | 0.00 | 98 | 1009.5 |
| 20260509141819 | 77 | 137 | 1.0 | 6.0 | 0.00 | 0.04 | 0.00 | 99 | 1009.1 |
| 20260509141318 | 77 | 145 | 2.0 | 6.0 | 0.00 | 0.04 | 0.00 | 99 | 1008.9 |
| 20260509140818 | 77 | 190 | 2.0 | 5.0 | 0.00 | 0.04 | 0.00 | 99 | 1009.1 |
| 20260509140043 | 76 | 187 | 1.0 | 4.0 | 0.00 | 0.04 | 0.00 | 100 | 1009.1 |
| 20260509140019 | 76 | 185 | 1.0 | 3.0 | 0.00 | 0.04 | 0.00 | 100 | 1009.2 |
| 20260509135016 | 76 | 187 | 2.0 | 4.0 | 0.00 | 0.04 | 0.00 | 100 | 1009.3 |
| 20260509134737 | 76 | 192 | 2.0 | 5.0 | 0.00 | 0.04 | 0.00 | 100 | 1009.4 |
| 20260509134006 | 76 | 186 | 2.0 | 5.0 | 0.00 | 0.04 | 0.00 | 100 | 1009.7 |
| 20260509133437 | 76 | 217 | 1.0 | 4.0 | 0.00 | 0.04 | 0.00 | 100 | 1009.7 |
| 20260509132917 | 76 | 217 | 1.0 | 3.0 | 0.00 | 0.04 | 0.00 | 100 | 1010.1 |
| 20260509132421 | 76 | 218 | 2.0 | 4.0 | 0.00 | 0.04 | 0.00 | 100 | 1010.3 |
| 20260509131853 | 76 | 218 | 1.0 | 4.0 | 0.00 | 0.04 | 0.00 | 100 | 1010.3 |
| 20260509131349 | 76 | 216 | 1.0 | 3.0 | 0.00 | 0.04 | 0.00 | 100 | 1010.1 |
| 20260509130831 | 76 | 216 | 0.0 | 2.0 | 0.00 | 0.04 | 0.00 | 100 | 1010.1 |
| 20260509130543 | 76 | 216 | 1.0 | 4.0 | 0.00 | 0.04 | 0.00 | 100 | 1010.1 |
| 20260509130425 | 75 | 216 | 1.0 | 4.0 | 0.00 | 0.04 | 0.00 | 100 | 1010.1 |
| 20260509125251 | 75 | 215 | 1.0 | 4.0 | 0.00 | 0.04 | 0.00 | 100 | 1010.0 |
| 20260509125021 | 75 | 113 | 0.0 | 4.0 | 0.00 | 0.04 | 0.00 | 100 | 1009.9 |
| 20260509124528 | 75 | 110 | 0.0 | 2.0 | 0.00 | 0.04 | 0.00 | 100 | 1009.7 |
| 20260509123719 | 75 | 109 | 0.0 | 1.0 | 0.00 | 0.04 | 0.00 | 100 | 1009.8 |
| 20260509123156 | 75 | 109 | 0.0 | 1.0 | 0.00 | 0.04 | 0.00 | 100 | 1009.8 |
| 20260509122655 | 75 | 109 | 0.0 | 1.0 | 0.00 | 0.04 | 0.00 | 100 | 1009.7 |
| 20260509122402 | 74 | 109 | 0.0 | 1.0 | 0.00 | 0.04 | 0.00 | 100 | 1009.8 |
| 20260509121604 | 74 | 109 | 0.0 | 0.0 | 0.00 | 0.04 | 0.00 | 100 | 1009.7 |
| 20260509121107 | 74 | 109 | 0.0 | 0.0 | 0.00 | 0.04 | 0.00 | 100 | 1009.7 |
| 20260509120556 | 74 | 109 | 0.0 | 1.0 | 0.00 | 0.04 | 0.00 | 100 | 1009.5 |
| 20260509120031 | 74 | 109 | 1.0 | 2.0 | 0.00 | 0.04 | 0.00 | 100 | 1009.4 |
| 20260509115505 | 74 | 109 | 1.0 | 2.0 | 0.00 | 0.04 | 0.00 | 100 | 1009.5 |
| 20260509115002 | 75 | 109 | 0.0 | 2.0 | 0.00 | 0.04 | 0.00 | 100 | 1009.4 |
| 20260509114459 | 75 | 109 | 1.0 | 3.0 | 0.00 | 0.04 | 0.00 | 100 | 1009.4 |
| 20260509113934 | 75 | 109 | 1.0 | 3.0 | 0.00 | 0.04 | 0.00 | 100 | 1009.6 |
| 20260509113407 | 75 | 109 | 0.0 | 3.0 | 0.00 | 0.04 | 0.00 | 100 | 1010.0 |
| 20260509112841 | 75 | 109 | 0.0 | 3.0 | 0.00 | 0.04 | 0.00 | 100 | 1010.0 |
| 20260509112315 | 74 | 112 | 0.0 | 2.0 | 0.00 | 0.04 | 0.00 | 100 | 1009.8 |
| 20260509111748 | 74 | 112 | 0.0 | 2.0 | 0.00 | 0.04 | 0.00 | 100 | 1009.7 |
| 20260509111245 | 74 | 112 | 0.0 | 3.0 | 0.00 | 0.04 | 0.00 | 100 | 1009.6 |
| 20260509110744 | 74 | 112 | 1.0 | 3.0 | 0.00 | 0.04 | 0.00 | 100 | 1009.6 |
| 20260509110239 | 74 | 112 | 1.0 | 3.0 | 0.00 | 0.04 | 0.00 | 100 | 1009.5 |
| 20260509105712 | 74 | 112 | 0.0 | 3.0 | 0.00 | 0.04 | 0.00 | 100 | 1009.4 |
| 20260509105209 | 74 | 142 | 0.0 | 0.0 | 0.00 | 0.04 | 0.00 | 100 | 1009.3 |
| 20260509104643 | 75 | 141 | 0.0 | 0.0 | 0.00 | 0.04 | 0.00 | 100 | 1009.1 |
| 20260509104138 | 75 | 142 | 0.0 | 0.0 | 0.00 | 0.04 | 0.00 | 100 | 1008.9 |
| 20260509103906 | 75 | 142 | 0.0 | 0.0 | 0.00 | 0.04 | 0.00 | 100 | 1009.0 |
| 20260509103340 | 75 | 142 | 0.0 | 0.0 | 0.00 | 0.04 | 0.00 | 100 | 1009.1 |
| 20260509102837 | 75 | 142 | 0.0 | 0.0 | 0.00 | 0.04 | 0.00 | 100 | 1009.0 |
| 20260509102039 | 75 | 141 | 0.0 | 0.0 | 0.00 | 0.04 | 0.00 | 100 | 1008.9 |
| 20260509101744 | 75 | 142 | 0.0 | 0.0 | 0.00 | 0.04 | 0.00 | 100 | 1009.0 |
| 20260509101009 | 75 | 142 | 0.0 | 0.0 | 0.00 | 0.04 | 0.00 | 100 | 1008.9 |
| 20260509100506 | 75 | 142 | 0.0 | 0.0 | 0.00 | 0.04 | 0.00 | 100 | 1008.9 |
| 20260509100005 | 75 | 142 | 0.0 | 0.0 | 0.00 | 0.04 | 0.00 | 100 | 1008.9 |
| 20260509095437 | 75 | 142 | 0.0 | 0.0 | 0.00 | 0.04 | 0.00 | 100 | 1008.8 |
| 20260509094935 | 75 | 142 | 0.0 | 0.0 | 0.00 | 0.04 | 0.00 | 100 | 1009.0 |
| 20260509094407 | 75 | 142 | 0.0 | 0.0 | 0.00 | 0.04 | 0.00 | 100 | 1008.8 |
| 20260509093841 | 75 | 142 | 0.0 | 0.0 | 0.00 | 0.04 | 0.00 | 100 | 1008.8 |
| 20260509093337 | 75 | 141 | 1.0 | 2.0 | 0.00 | 0.04 | 0.00 | 100 | 1009.0 |
| 20260509092853 | 75 | 142 | 1.0 | 2.0 | 0.00 | 0.04 | 0.00 | 100 | 1008.9 |
| 20260509091742 | 75 | 145 | 0.0 | 2.0 | 0.00 | 0.04 | 0.00 | 100 | 1009.0 |
| 20260509091237 | 75 | 145 | 0.0 | 2.0 | 0.00 | 0.04 | 0.00 | 100 | 1009.1 |
| 20260509090710 | 75 | 145 | 0.0 | 1.0 | 0.00 | 0.04 | 0.00 | 100 | 1009.1 |
| 20260509090206 | 75 | 145 | 0.0 | 1.0 | 0.00 | 0.04 | 0.00 | 100 | 1009.0 |
| 20260509085702 | 75 | 145 | 0.0 | 0.0 | 0.00 | 0.04 | 0.00 | 100 | 1009.1 |
| 20260509085159 | 75 | 145 | 0.0 | 1.0 | 0.00 | 0.04 | 0.00 | 100 | 1008.9 |
| 20260509084633 | 75 | 145 | 0.0 | 1.0 | 0.00 | 0.04 | 0.00 | 100 | 1008.9 |
| 20260509084106 | 75 | 145 | 0.0 | 4.0 | 0.00 | 0.04 | 0.00 | 100 | 1008.9 |
| 20260509083606 | 75 | 145 | 1.0 | 4.0 | 0.00 | 0.04 | 0.00 | 100 | 1008.7 |
| 20260509083038 | 75 | 145 | 2.0 | 6.0 | 0.00 | 0.04 | 0.00 | 100 | 1008.7 |
| 20260509082510 | 76 | 130 | 2.0 | 6.0 | 0.00 | 0.04 | 0.00 | 100 | 1008.7 |
| 20260509082007 | 76 | 135 | 1.0 | 5.0 | 0.00 | 0.04 | 0.00 | 100 | 1009.0 |
| 20260509081442 | 76 | 127 | 0.0 | 4.0 | 0.00 | 0.04 | 0.00 | 100 | 1009.1 |
| 20260509080917 | 76 | 127 | 2.0 | 7.0 | 0.00 | 0.04 | 0.00 | 99 | 1008.9 |
| 20260509080647 | 76 | 127 | 2.0 | 7.0 | 0.00 | 0.04 | 0.00 | 99 | 1008.8 |
| 20260509075855 | 76 | 133 | 1.0 | 3.0 | 0.00 | 0.04 | 0.00 | 99 | 1008.9 |
| 20260509075356 | 76 | 131 | 0.0 | 3.0 | 0.00 | 0.04 | 0.00 | 99 | 1009.0 |
| 20260509074855 | 76 | 131 | 1.0 | 3.0 | 0.00 | 0.04 | 0.00 | 99 | 1009.0 |
| 20260509074352 | 76 | 131 | 1.0 | 4.0 | 0.00 | 0.04 | 0.00 | 99 | 1008.9 |
| 20260509073852 | 76 | 131 | 0.0 | 4.0 | 0.00 | 0.04 | 0.00 | 99 | 1009.1 |
| 20260509073353 | 76 | 131 | 1.0 | 5.0 | 0.00 | 0.04 | 0.00 | 100 | 1009.3 |
| 20260509073100 | 76 | 131 | 1.0 | 5.0 | 0.00 | 0.04 | 0.00 | 100 | 1009.3 |
| 20260509072308 | 76 | 174 | 1.0 | 3.0 | 0.00 | 0.04 | 0.00 | 100 | 1009.4 |
| 20260509071750 | 76 | 174 | 1.0 | 3.0 | 0.00 | 0.04 | 0.00 | 100 | 1009.3 |
| 20260509071250 | 76 | 178 | 2.0 | 6.0 | 0.00 | 0.04 | 0.00 | 100 | 1009.5 |
| 20260509070723 | 76 | 179 | 3.0 | 6.0 | 0.00 | 0.04 | 0.00 | 100 | 1009.4 |
| 20260509070222 | 76 | 147 | 2.0 | 6.0 | 0.00 | 0.04 | 0.00 | 100 | 1009.4 |
| 20260509065706 | 76 | 89 | 1.0 | 4.0 | 0.00 | 0.04 | 0.00 | 100 | 1009.4 |
| 20260509065148 | 76 | 85 | 1.0 | 4.0 | 0.00 | 0.04 | 0.00 | 100 | 1009.4 |
| 20260509064922 | 76 | 85 | 0.0 | 4.0 | 0.00 | 0.04 | 0.00 | 100 | 1009.4 |
| 20260509064138 | 76 | 81 | 0.0 | 3.0 | 0.00 | 0.04 | 0.00 | 100 | 1009.3 |
| 20260509063910 | 76 | 81 | 0.0 | 3.0 | 0.00 | 0.04 | 0.00 | 100 | 1009.4 |
| 20260509063134 | 75 | 81 | 1.0 | 3.0 | 0.00 | 0.04 | 0.00 | 100 | 1009.4 |
| 20260509062633 | 75 | 81 | 0.0 | 3.0 | 0.00 | 0.04 | 0.00 | 100 | 1009.4 |
| 20260509062342 | 75 | 81 | 0.0 | 2.0 | 0.00 | 0.04 | 0.00 | 100 | 1009.4 |
| 20260509061546 | 75 | 79 | 0.0 | 0.0 | 0.00 | 0.04 | 0.00 | 100 | 1009.4 |
| 20260509061022 | 75 | 79 | 0.0 | 0.0 | 0.00 | 0.04 | 0.00 | 100 | 1009.6 |
| 20260509060459 | 74 | 79 | 0.0 | 0.0 | 0.00 | 0.04 | 0.00 | 100 | 1009.6 |
| 20260509055932 | 74 | 79 | 0.0 | 0.0 | 0.00 | 0.04 | 0.00 | 99 | 1009.6 |
| 20260509055405 | 74 | 79 | 0.0 | 0.0 | 0.00 | 0.04 | 0.00 | 99 | 1009.6 |
| 20260509054901 | 74 | 79 | 0.0 | 0.0 | 0.00 | 0.04 | 0.00 | 99 | 1009.7 |
| 20260509054838 | 74 | 79 | 0.0 | 0.0 | 0.00 | 0.04 | 0.00 | 99 | 1009.7 |
| 20260509053809 | 74 | 79 | 0.0 | 0.0 | 0.00 | 0.04 | 0.00 | 99 | 1009.6 |
| 20260509053307 | 74 | 79 | 0.0 | 0.0 | 0.00 | 0.04 | 0.00 | 99 | 1009.7 |
| 20260509052740 | 74 | 79 | 0.0 | 0.0 | 0.00 | 0.04 | 0.00 | 99 | 1009.7 |
| 20260509052215 | 74 | 79 | 0.0 | 1.0 | 0.00 | 0.04 | 0.00 | 99 | 1009.7 |
| 20260509051647 | 74 | 79 | 0.0 | 1.0 | 0.00 | 0.04 | 0.00 | 99 | 1009.8 |
| 20260509051146 | 74 | 79 | 0.0 | 2.0 | 0.00 | 0.04 | 0.00 | 99 | 1009.7 |
| 20260509050848 | 74 | 79 | 0.0 | 2.0 | 0.00 | 0.04 | 0.00 | 99 | 1009.7 |
| 20260509050052 | 74 | 79 | 0.0 | 0.0 | 0.00 | 0.04 | 0.00 | 99 | 1009.7 |
| 20260509045552 | 74 | 79 | 0.0 | 1.0 | 0.00 | 0.04 | 0.04 | 99 | 1009.9 |
| 20260509045542 | 74 | 79 | 0.0 | 1.0 | 0.00 | 0.04 | 0.04 | 99 | 1010.0 |
| 20260509044535 | 74 | 79 | 0.0 | 1.0 | 0.00 | 0.04 | 0.04 | 99 | 1009.9 |
| 20260509044009 | 74 | 79 | 1.0 | 3.0 | 0.00 | 0.04 | 0.04 | 99 | 1009.9 |
| 20260509043731 | 74 | 79 | 1.0 | 3.0 | 0.00 | 0.04 | 0.04 | 99 | 1009.9 |
| 20260509042958 | 74 | 79 | 1.0 | 3.0 | 0.00 | 0.04 | 0.04 | 99 | 1009.9 |
| 20260509042457 | 74 | 79 | 0.0 | 1.0 | 0.00 | 0.04 | 0.04 | 99 | 1010.0 |
| 20260509041956 | 74 | 79 | 0.0 | 1.0 | 0.00 | 0.04 | 0.04 | 99 | 1009.9 |
| 20260509041438 | 74 | 79 | 1.0 | 3.0 | 0.00 | 0.04 | 0.04 | 99 | 1009.9 |
| 20260509040934 | 74 | 79 | 1.0 | 4.0 | 0.00 | 0.04 | 0.04 | 99 | 1009.8 |
| 20260509040503 | 74 | 79 | 1.0 | 4.0 | 0.00 | 0.04 | 0.04 | 99 | 1009.5 |
| 20260509035339 | 74 | 87 | 1.0 | 4.0 | 0.00 | 0.04 | 0.04 | 99 | 1009.4 |
| 20260509034816 | 74 | 85 | 1.0 | 4.0 | 0.00 | 0.04 | 0.04 | 99 | 1009.5 |
| 20260509034256 | 74 | 85 | 0.0 | 4.0 | 0.00 | 0.04 | 0.04 | 99 | 1009.5 |
| 20260509033730 | 74 | 88 | 0.0 | 2.0 | 0.00 | 0.04 | 0.04 | 99 | 1009.4 |
| 20260509033513 | 74 | 89 | 1.0 | 4.0 | 0.00 | 0.04 | 0.04 | 99 | 1009.4 |
| 20260509032706 | 74 | 89 | 1.0 | 4.0 | 0.00 | 0.04 | 0.04 | 99 | 1009.5 |
| 20260509032142 | 74 | 64 | 1.0 | 4.0 | 0.00 | 0.04 | 0.04 | 99 | 1009.6 |
| 20260509031640 | 74 | 64 | 1.0 | 4.0 | 0.00 | 0.04 | 0.04 | 99 | 1009.5 |
| 20260509031141 | 74 | 64 | 1.0 | 3.0 | 0.00 | 0.04 | 0.04 | 99 | 1009.2 |
| 20260509030615 | 74 | 64 | 1.0 | 3.0 | 0.00 | 0.04 | 0.04 | 99 | 1009.3 |
| 20260509030112 | 74 | 64 | 1.0 | 4.0 | 0.00 | 0.04 | 0.04 | 99 | 1009.5 |
| 20260509025612 | 74 | 64 | 2.0 | 5.0 | 0.00 | 0.04 | 0.04 | 98 | 1009.3 |
| 20260509025042 | 74 | 70 | 2.0 | 5.0 | 0.00 | 0.04 | 0.04 | 98 | 1009.3 |
| 20260509024515 | 74 | 70 | 2.0 | 4.0 | 0.00 | 0.04 | 0.04 | 98 | 1009.1 |
| 20260509024013 | 74 | 70 | 2.0 | 5.0 | 0.00 | 0.04 | 0.04 | 98 | 1009.2 |
| 20260509023717 | 74 | 70 | 3.0 | 5.0 | 0.00 | 0.04 | 0.04 | 98 | 1009.2 |
| 20260509022946 | 74 | 75 | 2.0 | 5.0 | 0.00 | 0.04 | 0.04 | 98 | 1009.2 |
| 20260509022416 | 74 | 60 | 2.0 | 7.0 | 0.00 | 0.04 | 0.04 | 98 | 1009.0 |
| 20260509021851 | 74 | 61 | 3.0 | 9.0 | 0.00 | 0.04 | 0.04 | 97 | 1008.8 |
| 20260509021348 | 74 | 46 | 3.0 | 9.0 | 0.00 | 0.04 | 0.04 | 97 | 1008.8 |
| 20260509020823 | 74 | 54 | 3.0 | 7.0 | 0.00 | 0.04 | 0.04 | 97 | 1008.9 |
| 20260509020253 | 74 | 62 | 2.0 | 7.0 | 0.00 | 0.04 | 0.04 | 97 | 1008.8 |
| 20260509015750 | 74 | 79 | 2.0 | 7.0 | 0.00 | 0.04 | 0.04 | 97 | 1008.8 |
| 20260509015247 | 74 | 85 | 2.0 | 7.0 | 0.00 | 0.04 | 0.04 | 97 | 1008.8 |
| 20260509014745 | 74 | 77 | 3.0 | 7.0 | 0.00 | 0.04 | 0.04 | 97 | 1008.8 |
| 20260509014217 | 74 | 55 | 3.0 | 6.0 | 0.00 | 0.04 | 0.04 | 97 | 1008.5 |
| 20260509013714 | 74 | 70 | 2.0 | 6.0 | 0.00 | 0.04 | 0.04 | 97 | 1008.6 |
| 20260509013146 | 75 | 79 | 2.0 | 6.0 | 0.00 | 0.04 | 0.04 | 97 | 1008.7 |
| 20260509012619 | 75 | 86 | 2.0 | 6.0 | 0.00 | 0.04 | 0.04 | 96 | 1008.7 |
| 20260509012140 | 75 | 83 | 1.0 | 4.0 | 0.00 | 0.04 | 0.04 | 96 | 1008.7 |
| 20260509011549 | 75 | 84 | 1.0 | 4.0 | 0.00 | 0.04 | 0.04 | 96 | 1008.7 |
| 20260509011046 | 75 | 83 | 2.0 | 6.0 | 0.00 | 0.04 | 0.04 | 96 | 1008.7 |
| 20260509010520 | 75 | 75 | 2.0 | 6.0 | 0.00 | 0.04 | 0.04 | 96 | 1008.7 |
| 20260509010018 | 75 | 81 | 2.0 | 6.0 | 0.00 | 0.04 | 0.04 | 96 | 1008.7 |
| 20260509005513 | 75 | 85 | 1.0 | 6.0 | 0.00 | 0.04 | 0.04 | 96 | 1008.6 |
| 20260509005010 | 75 | 102 | 1.0 | 6.0 | 0.00 | 0.04 | 0.04 | 96 | 1008.6 |
| 20260509004444 | 75 | 112 | 2.0 | 6.0 | 0.00 | 0.04 | 0.04 | 96 | 1008.6 |
| 20260509003913 | 75 | 100 | 1.0 | 5.0 | 0.00 | 0.04 | 0.04 | 96 | 1008.5 |
| 20260509003642 | 75 | 68 | 2.0 | 7.0 | 0.00 | 0.04 | 0.04 | 96 | 1008.5 |
| 20260509002845 | 75 | 78 | 2.0 | 7.0 | 0.00 | 0.04 | 0.04 | 96 | 1008.4 |
| 20260509002326 | 75 | 59 | 3.0 | 10.0 | 0.00 | 0.04 | 0.04 | 96 | 1008.5 |
| 20260509001751 | 75 | 89 | 3.0 | 10.0 | 0.00 | 0.04 | 0.04 | 96 | 1008.5 |
| 20260509001520 | 75 | 42 | 4.0 | 9.0 | 0.00 | 0.04 | 0.04 | 96 | 1008.6 |
| 20260509000745 | 74 | 77 | 3.0 | 8.0 | 0.00 | 0.04 | 0.04 | 96 | 1008.5 |
| 20260509000243 | 74 | 79 | 3.0 | 8.0 | 0.00 | 0.04 | 0.04 | 96 | 1008.7 |
| 20260508235718 | 74 | 72 | 2.0 | 7.0 | 0.00 | 0.04 | 0.04 | 97 | 1008.6 |
| 20260508235227 | 74 | 75 | 3.0 | 8.0 | 0.00 | 0.04 | 0.04 | 97 | 1008.6 |
| 20260508234955 | 74 | 77 | 3.0 | 8.0 | 0.00 | 0.04 | 0.04 | 97 | 1008.7 |
| 20260508234143 | 74 | 79 | 2.0 | 6.0 | 0.00 | 0.04 | 0.04 | 97 | 1008.7 |
| 20260508233641 | 74 | 74 | 2.0 | 4.0 | 0.00 | 0.04 | 0.04 | 97 | 1008.9 |
| 20260508233116 | 74 | 67 | 1.0 | 5.0 | 0.00 | 0.04 | 0.04 | 97 | 1008.8 |
| 20260508232612 | 74 | 66 | 2.0 | 5.0 | 0.00 | 0.04 | 0.04 | 97 | 1009.0 |
| 20260508232317 | 74 | 66 | 3.0 | 5.0 | 0.00 | 0.04 | 0.04 | 97 | 1009.0 |
| 20260508231543 | 74 | 66 | 2.0 | 6.0 | 0.00 | 0.04 | 0.04 | 97 | 1008.9 |
| 20260508231015 | 74 | 71 | 2.0 | 6.0 | 0.00 | 0.04 | 0.04 | 97 | 1008.8 |
| 20260508230747 | 74 | 68 | 2.0 | 5.0 | 0.00 | 0.04 | 0.04 | 97 | 1008.8 |
| 20260508225956 | 74 | 63 | 2.0 | 5.0 | 0.00 | 0.04 | 0.04 | 97 | 1008.7 |
| 20260508225444 | 74 | 56 | 2.0 | 6.0 | 0.00 | 0.04 | 0.04 | 97 | 1008.6 |
| 20260508224939 | 74 | 58 | 2.0 | 6.0 | 0.00 | 0.04 | 0.04 | 97 | 1008.6 |
| 20260508224438 | 74 | 87 | 1.0 | 4.0 | 0.00 | 0.04 | 0.04 | 98 | 1008.7 |
| 20260508223936 | 74 | 84 | 1.0 | 4.0 | 0.00 | 0.04 | 0.04 | 98 | 1008.8 |
| 20260508223439 | 74 | 73 | 3.0 | 9.0 | 0.00 | 0.04 | 0.04 | 98 | 1008.7 |
| 20260508223434 | 74 | 76 | 1.0 | 6.0 | 0.00 | 0.04 | 0.04 | 98 | 1008.7 |
| 20260508222649 | 74 | 84 | 3.0 | 9.0 | 0.00 | 0.04 | 0.04 | 98 | 1008.8 |
| 20260508221844 | 74 | 73 | 2.0 | 8.0 | 0.00 | 0.04 | 0.04 | 99 | 1008.8 |
| 20260508221326 | 73 | 62 | 3.0 | 8.0 | 0.00 | 0.04 | 0.04 | 99 | 1008.9 |
| 20260508220810 | 73 | 60 | 4.0 | 8.0 | 0.00 | 0.04 | 0.04 | 99 | 1008.9 |
| 20260508220539 | 73 | 80 | 3.0 | 8.0 | 0.00 | 0.04 | 0.04 | 100 | 1008.8 |
| 20260508215807 | 73 | 130 | 3.0 | 6.0 | 0.00 | 0.04 | 0.04 | 100 | 1008.9 |
| 20260508215526 | 73 | 85 | 3.0 | 7.0 | 0.00 | 0.04 | 0.04 | 100 | 1008.9 |
| 20260508214755 | 73 | 73 | 2.0 | 7.0 | 0.00 | 0.04 | 0.04 | 100 | 1008.9 |
| 20260508214234 | 72 | 80 | 1.0 | 4.0 | 0.00 | 0.04 | 0.04 | 100 | 1009.0 |
| 20260508213939 | 72 | 83 | 1.0 | 6.0 | 0.00 | 0.04 | 0.04 | 100 | 1009.2 |
| 20260508213209 | 72 | 82 | 1.0 | 6.0 | 0.00 | 0.04 | 0.04 | 100 | 1009.2 |
| 20260508212920 | 72 | 81 | 1.0 | 3.0 | 0.00 | 0.04 | 0.04 | 100 | 1009.1 |
| 20260508212125 | 72 | 81 | 2.0 | 6.0 | 0.00 | 0.04 | 0.04 | 100 | 1009.2 |
| 20260508211837 | 72 | 82 | 2.0 | 6.0 | 0.00 | 0.04 | 0.04 | 100 | 1009.3 |
| 20260508211039 | 72 | 63 | 2.0 | 5.0 | 0.00 | 0.04 | 0.04 | 100 | 1009.4 |
| 20260508210538 | 71 | 65 | 2.0 | 5.0 | 0.00 | 0.04 | 0.04 | 100 | 1009.2 |
| 20260508210018 | 71 | 68 | 2.0 | 5.0 | 0.00 | 0.04 | 0.04 | 100 | 1009.2 |
| 20260508205456 | 71 | 69 | 2.0 | 6.0 | 0.00 | 0.04 | 0.04 | 100 | 1009.3 |
| 20260508204922 | 71 | 87 | 2.0 | 6.0 | 0.00 | 0.04 | 0.04 | 100 | 1009.4 |
| 20260508204651 | 71 | 85 | 2.0 | 4.0 | 0.00 | 0.04 | 0.04 | 100 | 1009.4 |
| 20260508204355 | 71 | 85 | 2.0 | 4.0 | 0.00 | 0.04 | 0.04 | 100 | 1009.4 |
| 20260508203325 | 71 | 91 | 2.0 | 6.0 | 0.00 | 0.04 | 0.04 | 100 | 1009.6 |
| 20260508202800 | 71 | 89 | 2.0 | 6.0 | 0.00 | 0.04 | 0.04 | 100 | 1009.4 |
| 20260508202505 | 71 | 78 | 2.0 | 6.0 | 0.00 | 0.04 | 0.04 | 100 | 1009.4 |
| 20260508201727 | 71 | 84 | 1.0 | 6.0 | 0.00 | 0.04 | 0.04 | 100 | 1009.7 |
| 20260508201224 | 71 | 97 | 0.0 | 4.0 | 0.00 | 0.04 | 0.04 | 100 | 1009.6 |
| 20260508200658 | 71 | 77 | 0.0 | 2.0 | 0.00 | 0.04 | 0.04 | 100 | 1009.7 |
| 20260508200154 | 71 | 77 | 1.0 | 4.0 | 0.00 | 0.04 | 0.04 | 100 | 1009.9 |
| 20260508195627 | 70 | 80 | 1.0 | 4.0 | 0.00 | 0.04 | 0.04 | 100 | 1009.9 |
| 20260508195123 | 70 | 80 | 1.0 | 4.0 | 0.00 | 0.04 | 0.04 | 100 | 1010.1 |
| 20260508194601 | 70 | 97 | 2.0 | 4.0 | 0.00 | 0.04 | 0.04 | 100 | 1010.3 |
| 20260508194557 | 70 | 80 | 2.0 | 4.0 | 0.00 | 0.04 | 0.04 | 100 | 1010.2 |
| 20260508193527 | 70 | 64 | 2.0 | 5.0 | 0.00 | 0.04 | 0.04 | 100 | 1010.4 |
| 20260508193023 | 70 | 52 | 1.0 | 4.0 | 0.00 | 0.04 | 0.04 | 100 | 1010.4 |
| 20260508192456 | 70 | 41 | 1.0 | 5.0 | 0.00 | 0.04 | 0.04 | 100 | 1010.5 |
| 20260508191953 | 69 | 41 | 2.0 | 4.0 | 0.00 | 0.04 | 0.04 | 100 | 1010.5 |
| 20260508191427 | 69 | 41 | 2.0 | 5.0 | 0.00 | 0.04 | 0.04 | 100 | 1010.5 |
| 20260508190900 | 69 | 41 | 2.0 | 5.0 | 0.00 | 0.04 | 0.04 | 100 | 1010.6 |
| 20260508190357 | 69 | 42 | 2.0 | 5.0 | 0.00 | 0.04 | 0.04 | 100 | 1010.5 |
| 20260508185830 | 69 | 70 | 2.0 | 6.0 | 0.00 | 0.04 | 0.04 | 100 | 1010.5 |
| 20260508185330 | 69 | 64 | 2.0 | 6.0 | 0.00 | 0.04 | 0.04 | 100 | 1010.6 |
| 20260508184801 | 69 | 49 | 3.0 | 9.0 | 0.01 | 0.04 | 0.04 | 100 | 1010.6 |
| 20260508184234 | 69 | 27 | 4.0 | 9.0 | 0.01 | 0.04 | 0.04 | 100 | 1010.6 |
| 20260508183731 | 69 | 63 | 4.0 | 9.0 | 0.01 | 0.04 | 0.04 | 100 | 1010.5 |
| 20260508183438 | 69 | 58 | 3.0 | 9.0 | 0.01 | 0.04 | 0.04 | 100 | 1010.5 |
| 20260508182638 | 69 | 37 | 3.0 | 6.0 | 0.01 | 0.04 | 0.04 | 100 | 1010.6 |
| 20260508182153 | 69 | 49 | 2.0 | 5.0 | 0.01 | 0.04 | 0.04 | 100 | 1010.9 |